Location: Harwich
(41.6860°N, 70.0760°W)
Time: 08:35:05
(UTC-04:00)

ISS - Pass Details

Date: 29 April 2019
Orbit: 407 x 410 km, 51.6° (Epoch: 21 May)

Event Time Altitude Azimuth Distance (km) Brightness Sun altitude
Exits shadow 04:45:33 11° 207° (SSW) 1,414 -1.6 -10.0°
Maximum altitude 04:48:30 38° 138° (SE) 636 -2.7 -9.6°
Drops below altitude 10° 04:51:37 10° 68° (ENE) 1,478 0.7 -9.1°
Sets 04:53:47 0° 61° (ENE) 2,343 2.6 -8.7°
